Location: Newark
(50.4348°N, 30.5552°E)
Time: 10:30:29
(UTC+00:00)

Tiros 1 despin weight - Pass Details

Date: 26 January 2020
Orbit: 594 x 642 km, 48.2° (Epoch: 20 February)

Event Time Altitude Azimuth Distance (km) Brightness Sun altitude
Rises 13:21:08 0° 278° (W) 2,901 ? 9.1°
Reaches altitude 10° 13:23:30 10° 272° (W) 2,001 ? 8.8°
Maximum altitude 13:27:53 45° 200° (SSW) 862 ? 8.3°
Drops below altitude 10° 13:32:20 10° 128° (SE) 2,019 ? 7.8°
Sets 13:34:44 0° 122° (ESE) 2,931 ? 7.5°
